User: anonymous   Login
Location: Unspecified
(0.0000°N, 0.0000°E)
Time: 09:01:10
(UTC+00:00)
Language:

STARLINK-32386 - Orbit

View from above orbital plane
View from above orbital plane
View from above satellite
View from above satellite

Ground track
Ground track

The orbit is defined by the following mean orbital elements,

1 61213U          26145.21486808 +.00000000 +00000-0 +16095-2 0 00004
2 61213  53.1613 326.3703 0001104  61.9385 298.1729 15.34154994    09
Epoch (UTC): 25 May 2026 05:09:24
Eccentricity: 0.0001104
inclination: 53.1613°
perigee height: 463 km
apogee height: 464 km
right ascension of ascending node: 326.3703°
argument of perigee: 61.9385°
revolutions per day: 15.34154994
mean anomaly at epoch: 298.1729°

The dashed part of the orbit path shows where the satellite is in the earth's shadow,  

DLR